铱星星座 171星 (IRIDIUM 171)

导读 | 星芒AI

IRIDIUM 171 是 Iridium 卫星通信公司部署的一颗低轨通信卫星,属于 Iridium NEXT 卫星星座的一部分。该星座由 66 颗工作卫星组成,提供全球范围的语音和数据通信服务。IRIDIUM 171 于 2017 年发射,运行在极地轨道上,支持航空、航海、政府和应急通信等应用。卫星采用先进设计,具备抗干扰能力和高带宽,为用户提供可靠、实时的通信连接。

基本信息
目录编号:
43929
目录名称:
IRIDIUM 171
国际标识:
2019-002H
轨道中心:
EARTH
卫星名称:
铱星星座 171星
卫星全名:
铱星星座 171星 (IRIDIUM 171)
卫星状态:
在轨 (已飞行2483 天)
发射日期:
2019-01-11 UTC
国别 :
美国 (US)
星等 :
--
轨道信息
数据来源 国际轨道数据 AOE轨道数据
星历时间 2025-10-28T19:02:31+0800
23小时前
查看轨道信息
2025-10-28T06:00:00+0800
1天前
查看轨道信息
半长轴 7155.806km 7155.813km
偏心率 0.0001779 0.0001648
轨道倾角 86.393° 86.394°
近地点辐角 93.880° 88.290°
升交点赤经 90.731° 90.959°
平近点角 266.260° 347.880°
近地点 776.397km 776.498km
远地点 778.945km 778.858km
周期 100.403分钟 100.403分钟
每日圈数 14.342174 14.342152
详细信息
平衡模式:
三轴稳定
覆盖范围:
全球
运营商:
铱星通信公司
运营商所在国:
美国
制造商(研发单位):
阿莱尼亚宇航公司
制造商所在国:
意大利
使用方式:
暂无
卫星简介
铱星(Iridium)是由共66个运作中的通信卫星组成的卫星通信系统。这个系统原本规划77个通信卫星,所以用原子序数为77的铱元素来命名。铱卫星允许人们使用手持型电子设备进行全球性的语音及数据通讯。该卫星仍在工作。
2D轨道图
3D轨道图
轨道高度分析图
轨道倾角分析图
轨道综合分析图
查看轨道综合分析图